Regional Weather Roundup
Issued by NWS

Home | Current Version | Previous Version | Graphics & Text | Print | Product List | Glossary Off
Versions: 1 2 3 4 5 6 7 8 9 10 11 12 13 14 15 16 17 18 19 20 21 22 23 24 25 26 27 28 29 30 31 32 33 34 35 36 37 38 39 40 41 42 43 44 45 46 47 48 49 50

810
ASUS43 KDMX 230703
RWRIA

WEATHER ROUNDUP FOR IOWA
NATIONAL WEATHER SERVICE DES MOINES IA
200 AM CDT SAT JUL 23 2016

NOTE: "FAIR" INDICATES FEW OR NO CLOUDS BELOW 12,000 FEET WITH NO
SIGNIFICANT WEATHER AND/OR OBSTRUCTIONS TO VISIBILITY.

* - THESE STATIONS ARE NOT NWS STATIONS...THUS NOT UNDER NWS
QUALITY CONTROL.  THEY ALSO DO NOT REPORT WEATHER SUCH
AS PRECIPITATION OR FOG.

IAZ001>003-012>014-020>022-031>034-043>046-230800-
   NORTHWEST IOWA

CITY           SKY/WX    TMP DP  RH WIND       PRES   REMARKS
CARROLL *      PTCLDY    79  79 100 SE8       29.92F HX  83
CHEROKEE *     MOCLDY    80  79  97 SE7       29.91F HX  86
DENISON *      CLOUDY    79  77  94 SE9       29.90S HX  83
LE MARS *      MOCLDY    82  79  89 E6        29.90S HX  93
SHELDON *      CLOUDY    79  79 100 VRB5      29.91F HX  83
SIOUX CITY     MOCLDY    83  78  85 SE9       29.88  HX  93
SPENCER        CLOUDY    80  77  90 SE9       29.93F HX  87
STORM LAKE *   CLOUDY    79  79 100 SE7       29.94F HX  83
$$

IAZ055>058-069>071-079>083-090>094-230800-
   SOUTHWEST IOWA

CITY           SKY/WX    TMP DP  RH WIND       PRES   REMARKS
ATLANTIC *     CLOUDY    81  77  89 S3        29.92F HX  88
CLARINDA *       N/A     81  77  89 MISG      29.95F HX  88
COUNCIL BLFS * CLOUDY    81  77  89 S10       29.91F HX  88
CRESTON *      CLOUDY    79  77  94 S9        29.98S HX  83
HARLAN  *      CLOUDY    79  77  94 S5        29.95F HX  83
LAMONI         PTCLDY    78  77  96 S6        29.97F HX  81
RED OAK *      CLOUDY    81  77  89 CALM      29.93S HX  88
SHENANDOAH *   CLOUDY    82  79  89 S10       29.92S HX  93
$$

IAZ047>049-059>061-072>074-084-230800-
   CENTRAL IOWA

CITY           SKY/WX    TMP DP  RH WIND       PRES   REMARKS
AMES           CLEAR     78  78 100 SE9       29.95F HX  81
ANKENY *         N/A    N/A N/A N/A MISG        N/A
BOONE *        PTCLDY    79  77  94 SE7       29.95F HX  83
CHARITON *       N/A    N/A N/A N/A MISG        N/A
DES MOINES     PTCLDY    82  77  84 SE8       29.95F HX  90
GRINNELL*      PTCLDY    76  74  92 SE3       29.99F
KNOXVILLE *    CLOUDY    77  75  94 E5        29.96F
MARSHALLTOWN   CLOUDY    78  76  93 SE8       29.97S HX  81
NEWTON *       CLOUDY    77  77 100 S7        29.97F
PELLA *        CLOUDY    77  75  92 SE3       29.99F
PERRY *          N/A     79  78  97 SE5       29.94F HX  83
$$

IAZ004>006-015-016-023>025-035-036-230800-
   NORTH CENTRAL IOWA

CITY           SKY/WX    TMP DP  RH WIND       PRES   REMARKS
ALGONA *       CLEAR     79  79 100 SE6       29.95F HX  83
ESTHERVILLE    CLOUDY    77  77 100 E3        29.95F
FORT DODGE *   MOCLDY    81  77  89 SE7       29.96F HX  88
MASON CITY     CLEAR     76  75  97 E5        29.99R
FOREST CITY *    N/A     75  75 100 CALM      29.97S
IOWA FALLS *   MOCLDY    79  76  90 S7        29.99S HX  82
$$

IAZ007>011-017>019-026>030-037>042-050>054-066-230800-
   NORTHEAST IOWA

CITY           SKY/WX    TMP DP  RH WIND       PRES   REMARKS
CEDAR RAPIDS   PTCLDY    77  77 100 S5        29.97F
CHARLES CITY * CLEAR     77  77 100 E6        29.98F
DECORAH *      CLOUDY    77  77 100 VRB3      29.98F
DUBUQUE        CLOUDY    76  74  93 CALM      30.00F
MONTICELLO *   PTCLDY    75  75 100 CALM      29.98F FOG
OELWEIN *      CLOUDY    77  77 100 SE6       29.99F FOG
WATERLOO       PTCLDY    78  76  93 E5        29.96S HX  81
$$

IAZ064-065-067-068-078-230800-
   EAST CENTRAL IOWA

CITY           SKY/WX    TMP DP  RH WIND       PRES   REMARKS
DAVENPORT      CLEAR     74  72  93 CALM      29.99F FOG
IOWA CITY      CLEAR     78  76  93 S3        29.99F HX  81
MT. PLEASANT * CLEAR     79  79 100 S3        29.99R HX  84
MUSCATINE *    CLEAR     75  73  94 CALM      29.98S
QUAD CITIES    CLEAR     77  74  90 CALM      29.98S
$$

IAZ062-063-075>077-085>089-095>099-230800-
   SOUTHEAST IOWA

CITY           SKY/WX    TMP DP  RH WIND       PRES   REMARKS
BURLINGTON     CLEAR     77  77 100 CALM      29.98F
FAIRFIELD *    PTCLDY    77  75  94 CALM      29.98S
KEOKUK *       CLEAR     79  77  94 SW5       29.98S HX  83
CENTERVILLE *    N/A     75  75 100 CALM      30.00S
OTTUMWA        MOCLDY    77  74  90 S6        29.98S
WASHINGTON *   CLEAR     75  75 100 S5        29.99F
$$

ABBREVIATIONS USED IN REMARKS
   TC - TEMPERATURES IN CELSIUS
  WCI - WIND CHILL INDEX
   HX - HEAT INDEX
  VSB - VISIBILITY
$$





USA.gov is the U.S. government's official web portal to all federal, state and local government web resources and services.